N7DTY Weather Reports


time (UTC)temp
C
wind
direction
speed
KPH
gust
KPH
rain 1hr
cm
rain 24hr
cm
rain mn
cm
humidity
%
barometer
mb
20260504044532 13 197 0.0 1.6 0.00 0.00 0.00 77 1009.3
20260504043039 14 197 0.0 0.0 0.00 0.00 0.00 76 1009.3
20260504041531 14 197 0.0 0.0 0.00 0.00 0.00 75 1009.4
20260504040031 15 197 0.0 1.6 0.00 0.00 0.00 75 1009.3
20260504034530 15 197 0.0 0.0 0.00 0.00 0.00 72 1009.2
20260504033030 15 197 0.0 0.0 0.00 0.00 0.00 70 1009.3
20260504031533 16 197 0.0 1.6 0.00 0.00 0.00 70 1009.3
20260504030028 16 186 0.0 0.0 0.00 0.00 0.00 71 1009.4
20260504024533 17 173 0.0 1.6 0.00 0.00 0.00 69 1009.3
20260504023027 17 173 0.0 1.6 0.00 0.00 0.00 70 1009.3
20260504021526 18 173 0.0 1.6 0.00 0.00 0.00 67 1009.4
20260504020024 18 173 0.0 3.2 0.00 0.00 0.00 66 1009.6
20260504014533 18 173 0.0 4.8 0.00 0.00 0.00 62 1009.6
20260504013033 19 189 1.6 8.0 0.00 0.00 0.00 60 1009.8
20260504011522 19 172 3.2 6.4 0.00 0.00 0.00 61 1009.9
20260504010020 20 223 0.0 6.4 0.00 0.00 0.00 62 1010.1
20260504004518 20 159 0.0 4.8 0.00 0.00 0.00 62 1010.2
20260504003017 21 180 1.6 11.3 0.00 0.00 0.00 61 1010.5
20260504001515 22 179 4.8 9.7 0.00 0.00 0.00 57 1010.4
20260504000013 25 341 0.0 8.0 0.00 0.00 0.00 46 1010.6
20260503234512 25 298 3.2 12.9 0.00 0.00 0.00 47 1010.8
20260503233018 25 158 3.2 6.4 0.00 0.00 0.00 47 1010.9
20260503231510 24 215 1.6 6.4 0.00 0.00 0.00 52 1010.9
20260503230006 25 257 1.6 9.7 0.00 0.00 0.00 49 1011.2
20260503224505 24 30 4.8 8.0 0.00 0.00 0.00 47 1011.4
20260503223003 25 288 1.6 8.0 0.00 0.00 0.00 45 1011.5
20260503221501 25 22 0.0 8.0 0.00 0.00 0.00 44 1011.7
20260503220059 24 292 0.0 4.8 0.00 0.00 0.00 45 1011.9
20260503214601 24 26 1.6 8.0 0.00 0.00 0.00 48 1012.0
20260503213057 24 305 1.6 12.9 0.00 0.00 0.00 42 1012.1
20260503211556 25 360 4.8 12.9 0.00 0.00 0.00 42 1012.1
20260503210054 24 190 1.6 8.0 0.00 0.00 0.00 45 1012.2
20260503204552 25 343 3.2 12.9 0.00 0.00 0.00 45 1012.5
20260503203104 23 24 3.2 8.0 0.00 0.00 0.00 41 1012.9
20260503201546 23 345 3.2 16.1 0.00 0.00 0.00 46 1013.0
20260503200043 22 227 4.8 12.9 0.00 0.00 0.00 48 1013.3
20260503194544 22 5 3.2 9.7 0.00 0.00 0.00 56 1013.3
20260503193041 22 26 6.4 16.1 0.00 0.00 0.00 54 1013.4
20260503191546 21 206 3.2 14.5 0.00 0.00 0.00 56 1013.5
20260503190042 22 15 1.6 8.0 0.00 0.00 0.00 58 1013.4
20260503184534 22 74 1.6 8.0 0.00 0.00 0.00 55 1013.5
20260503183032 21 323 0.0 8.0 0.00 0.00 0.00 60 1013.6
20260503181527 21 21 1.6 6.4 0.00 0.00 0.00 63 1013.8
20260503180023 21 181 0.0 8.0 0.00 0.00 0.00 63 1014.1
20260503174520 19 202 1.6 8.0 0.00 0.00 0.00 67 1014.2
20260503173017 20 205 4.8 8.0 0.00 0.00 0.00 67 1014.3
20260503171513 19 27 1.6 6.4 0.00 0.00 0.00 66 1014.4
20260503081602 11 204 0.0 1.6 0.00 0.00 0.00 84 1014.3